Regional Weather Roundup
Issued by NWS

Home | Current Version | Previous Version | Text Only | Print | Product List | Glossary On
Versions: 1 2 3 4 5 6 7 8 9 10 11 12 13 14 15 16 17 18 19 20 21 22 23 24 25 26 27 28 29 30 31 32 33 34 35 36 37 38 39 40 41 42 43 44 45 46 47 48 49 50
000
ASUS44 KFWD 201815
RWRTX
NORTH TEXAS HOURLY WEATHER ROUNDUP
NATIONAL WEATHER SERVICE FORT WORTH TX
1200 PM CST TUE FEB 20 2018

NOTE: "FAIR" INDICATES FEW OR NO CLOUDS BELOW 12,000 FEET WITH NO
SIGNIFICANT WEATHER AND/OR OBSTRUCTIONS TO VISIBILITY.

TXZ118-119-201900-
DALLAS/FORT WORTH METROPLEX

CITY           SKY/WX    TMP DP  RH WIND       PRES   REMARKS
DFW AIRPORT    LGT RAIN  70  66  87 S16       29.91F
6HR MIN TEMP:  66; 6HR MAX TEMP:  71; 6HR PCP:  0.03;

DALLAS LOVE    LGT RAIN  69  66  90 S9        29.93S FOG
6HR MIN TEMP:  64; 6HR MAX TEMP:  71; 6HR PCP:  0.43;

FTW MEACHAM    TSTM      69  67  93 S15G24    29.90F
6HR MIN TEMP:  64; 6HR MAX TEMP:  70; 6HR PCP:  0.05;

DAL-EXECUTIVE  RAIN      69  66  90 S10       29.93S FOG
6HR MIN TEMP:  64; 6HR MAX TEMP:  71; 6HR PCP:  0.06;

FTW-ALLIANCE   CLOUDY    67  66  97 S13       29.89F THUNDER
6HR MIN TEMP:  61; 6HR MAX TEMP:  68; 6HR PCP:  0.52;

FTW-NAS-JRB    LGT RAIN  69  64  84 S21G28    29.91F
6HR MIN TEMP:  64; 6HR MAX TEMP:  70; 6HR PCP:  0.16;

FTW-SPINKS     CLOUDY    68  64  88 S6        29.94F
ARLINGTON      LGT RAIN  68  67  96 SE14      29.91F
6HR MIN TEMP:  63; 6HR MAX TEMP:  69; 6HR PCP:  0.06;

GRAND PRAIRIE  LGT RAIN  68  68 100 S7        29.95S
ADDISON        RAIN      68  64  88 S12G21    29.95R
MESQUITE       LGT RAIN  70  64  83 SE12G20   29.95R
LANCASTER      RAIN      69  64  83 S10       29.96R
6HR MIN TEMP:  64; 6HR MAX TEMP:  71; 6HR PCP:  0.01;

$$

TXZ091>094-102>105-117-120-121-131>134-201900-
NORTH CENTRAL TEXAS

CITY           SKY/WX    TMP DP  RH WIND       PRES   REMARKS
SHRMAN/DENISON TSTM      61  60  96 S17G24    29.94F VSB 1
6HR MIN TEMP:  61; 6HR MAX TEMP:  68; 6HR PCP:  0.44;

GAINESVILLE    LGT RAIN  61  59  95 SW6       29.92F
6HR MIN TEMP:  59; 6HR MAX TEMP:  64; 6HR PCP:  0.48;

BOWIE          HVY RAIN  61  59  94 S22G29    29.89S
BRIDGEPORT     PTSUNNY   62  62 100 CALM      29.91R
DECATUR        FAIR      64  63  96 S12G20    29.88S
6HR MIN TEMP:  59; 6HR MAX TEMP:  65; 6HR PCP:  0.72;

DENTON         LGT RAIN  64  64 100 S17       29.89F
6HR MIN TEMP:  60; 6HR MAX TEMP:  67; 6HR PCP:  1.48;

MCKINNEY       LGT RAIN  67  66  97 S14       29.93F FOG
6HR MIN TEMP:  63; 6HR MAX TEMP:  70; 6HR PCP:  0.16;

BONHAM         RAIN      62  58  86 SW7       29.96R
6HR MIN TEMP:  62; 6HR MAX TEMP:  70; 6HR PCP:  0.08;

GREENVILLE     LGT RAIN  72  64  78 S16       29.96S
ROCKWALL       LGT RAIN  69  65  85 S14G26    29.96R
6HR MIN TEMP:  62; 6HR MAX TEMP:  71; 6HR PCP:  0.02;

TERRELL        LGT RAIN  71  63  75 S15G24    29.96R
6HR MIN TEMP:  69; 6HR MAX TEMP:  73; 6HR PCP: TRACE;

WAXAHACHIE     RAIN      67  67  99 S13       29.96R
6HR MIN TEMP:  62; 6HR MAX TEMP:  70; 6HR PCP:  0.05;

CLEBURNE       LGT RAIN  66  66 100 S9        29.95F
GRANBURY       RAIN      69  66  89 SE13      29.92S
6HR MIN TEMP:  64; 6HR MAX TEMP:  69; 6HR PCP:  0.12;

$$

TXZ083>090-098>101-113>116-127>130-139>142-154-155-201900-
WESTERN NORTH TEXAS

CITY           SKY/WX    TMP DP  RH WIND       PRES   REMARKS
WICHITA FALLS  TSTM      35  33  92 N30G37    29.97R FOG     WCI  22
6HR MIN TEMP:  36; 6HR MAX TEMP:  72; 6HR PCP:  0.13;

WF-KICKAPOO    CLOUDY    40  35  81 N23G40    29.98R WCI  30
6HR MIN TEMP:  40; 6HR MAX TEMP:  70;

VERNON         CLOUDY    32  28  85 N29G38    30.03R WCI  18
6HR MIN TEMP:  32; 6HR MAX TEMP:  79; 6HR PCP:  0.05;

ABILENE        RAIN      67  63  87 SW13G29   29.86S FOG
6HR MIN TEMP:  65; 6HR MAX TEMP:  75;

ABILENE-DYESS  PTSUNNY   75  60  60 W9        29.86S
6HR MIN TEMP:  66; 6HR MAX TEMP:  77;

GRAHAM           N/A     67  32  26 S9G17     29.86S
6HR MIN TEMP:  63; 6HR MAX TEMP:  68; 6HR PCP:  0.01;

BRECKENRIDGE   TSTM      68  67  96 MISG      29.88S
6HR MIN TEMP:  64; 6HR MAX TEMP:  70; 6HR PCP:  0.52;

CISCO            N/A    N/A N/A N/A MISG        N/A
EASTLAND       CLOUDY    68  64  86 S15       29.89S THUNDER
6HR MIN TEMP:  61; 6HR MAX TEMP:  69; 6HR PCP:  0.44;

RANGER         CLOUDY    67  64  90 S14G20    29.90S
MINERAL WELLS  PTSUNNY   68  66  93 SE14      29.86F
6HR MIN TEMP:  60; 6HR MAX TEMP:  67; 6HR PCP:  1.06;

STEPHENVILLE   CLOUDY    67  64  90 S12G18    29.94F
6HR MIN TEMP:  60; 6HR MAX TEMP:  67; 6HR PCP:  0.56;

COMANCHE       LGT RAIN  66  66 100 S12G20    29.90F
6HR MIN TEMP:  59; 6HR MAX TEMP:  67; 6HR PCP:  0.25;

BROWNWOOD      LGT RAIN  66  66 100 S12       29.91S
COLEMAN        CLOUDY    70  65  82 S13       29.90S
6HR MIN TEMP:  63; 6HR MAX TEMP:  70; 6HR PCP:  0.28;

$$

TXZ143>147-156>162-174-175-201900-
CENTRAL TEXAS

CITY           SKY/WX    TMP DP  RH WIND       PRES   REMARKS
WACO           LGT RAIN  70  64  81 S20       29.93S
6HR MIN TEMP:  68; 6HR MAX TEMP:  71; 6HR PCP: TRACE;

WACO-TSTC      CLOUDY    73  66  78 S18G24      N/A
WACO-MCGREGOR  LGT RAIN  71  66  84 S17       29.93F
6HR MIN TEMP:  68; 6HR MAX TEMP:  72; 6HR PCP: TRACE;

HILLSBORO      HVY RAIN  69  68  96 S13       29.94S
6HR MIN TEMP:  67; 6HR MAX TEMP:  71; 6HR PCP:  0.08;

CORSICANA      CLOUDY    73  64  73 S17       29.97R
6HR MIN TEMP:  68; 6HR MAX TEMP:  74;

MEXIA          PTSUNNY   74  64  73 S28G33    29.94S
6HR MIN TEMP:  67; 6HR MAX TEMP:  74;

HEARNE         CLOUDY    74  67  78 SE17G25   29.97F
6HR MIN TEMP:  68; 6HR MAX TEMP:  74;

CAMERON        CLOUDY    74  66  75 S16G22    29.94F
6HR MIN TEMP:  69; 6HR MAX TEMP:  75;

TEMPLE         LGT RAIN  70  66  88 S21G28    29.92F
6HR MIN TEMP:  68; 6HR MAX TEMP:  72; 6HR PCP:  0.04;

KILLEEN        TSTM      68  66  94 SE8       29.91F FOG
6HR MIN TEMP:  66; 6HR MAX TEMP:  69; 6HR PCP:  0.10;

KILLEEN-SKYLRK TSTM      69  66  90 S14G20    29.94F
6HR MIN TEMP:  67; 6HR MAX TEMP:  70; 6HR PCP:  0.04;

FORT HOOD      TSTM      66  66 100 S9        29.90F FOG
6HR MIN TEMP:  65; 6HR MAX TEMP:  68; 6HR PCP:  0.07;

GATESVILLE     TSTM      68  66  94 S13       29.95F VSB 1
HAMILTON       RAIN      67  67 100 S15       29.91F
6HR MIN TEMP:  63; 6HR MAX TEMP:  69; 6HR PCP:  0.06;

LAMPASAS       LGT RAIN  66  64  93 S9G16     29.89F
6HR MIN TEMP:  66; 6HR MAX TEMP:  68; 6HR PCP:  0.10;

$$

TXZ095>097-106>112-122>126-135>138-148>153-164>167-201900-
EAST TEXAS

CITY           SKY/WX    TMP DP  RH WIND       PRES   REMARKS
PARIS          CLOUDY    72  62  71 S20       29.96F
6HR MIN TEMP:  67; 6HR MAX TEMP:  72; 6HR PCP:  0.01;

SULPHUR SPRNGS LGT RAIN  73  61  68 S12G24    29.99S
6HR MIN TEMP:  70; 6HR MAX TEMP:  73;

MOUNT PLEASANT FAIR      74  63  66 S16G25    30.01F
6HR MIN TEMP:  68; 6HR MAX TEMP:  74;

GILMER         CLOUDY    73  62  69 S14G20    30.00S
6HR MIN TEMP:  68; 6HR MAX TEMP:  73;

MINEOLA        CLOUDY    75  63  64 S16G23    29.96F
TYLER          CLOUDY    75  63  66 S21       29.97F
6HR MIN TEMP:  69; 6HR MAX TEMP:  75;

LONGVIEW       CLOUDY    75  65  70 S17G28    29.99F
6HR MIN TEMP:  69; 6HR MAX TEMP:  76;

MARSHALL       CLOUDY    75  61  60 S16G23    30.03S
6HR MIN TEMP:  67; 6HR MAX TEMP:  75;

ATHENS         CLOUDY    72  61  68 S18G25    29.95F
PALESTINE      LGT RAIN  72  65  78 S9G16     30.00S
JACKSONVILLE   CLOUDY    73  64  73 S13G22    30.02S
HENDERSON      CLOUDY    75  63  65 S15G24    30.01F
6HR MIN TEMP:  68; 6HR MAX TEMP:  75;

CENTER         MOCLDY    77  61  57 S20G28    30.03F
6HR MIN TEMP:  67; 6HR MAX TEMP:  77;

NACOGDOCHES    CLOUDY    76  64  66 S21G28    30.01F
6HR MIN TEMP:  68; 6HR MAX TEMP:  77;

LUFKIN         FAIR      77  64  64 S18G32    30.01F
6HR MIN TEMP:  68; 6HR MAX TEMP:  77;

$$

SUPPLEMENTAL OBSERVATIONS (NWS FORT WORTH AREA)

CITY           SKY/WX    TMP DP  RH WIND       PRES   REMARKS
DENISON DAM      N/A    N/A N/A N/A SW17        N/A
CADDO GRASSLND   N/A    N/A N/A N/A S15G26      N/A



USA.gov is the U.S. government's official web portal to all federal, state and local government web resources and services.